• In Deutschland
  • Länderverzeichnis
  • Für 7 Tage
  • Wassertemperatur
  • Satellitenkarten
  • Wetterkarte
  • Widgets
  • user-avatar
    Anmelden

    Stündliche Wetter Northeim

    Heute, 20 August, Montag

    Zeit Temperatur Niederschläge Wind Luftdruck Luftfeuchtigkeit
    00:00 +18°C° 0 mm 2 m/S 750 mmHg 78%
    01:00 +18°C° 0 mm 2 m/S 750 mmHg 80%
    02:00 +18°C° 0 mm 2 m/S 750 mmHg 82%
    03:00 +18°C° 0 mm 2 m/S 750 mmHg 84%
    04:00 +18°C° 0 mm 2 m/S 750 mmHg 86%
    05:00 +18°C° 0 mm 3 m/S 750 mmHg 85%
    06:00 +19°C° 0 mm 3 m/S 750 mmHg 84%
    07:00 +20°C° 0 mm 3 m/S 750 mmHg 83%
    08:00 +20°C° 0 mm 3 m/S 750 mmHg 80%
    09:00 +21°C° 0 mm 4 m/S 751 mmHg 76%
    10:00 +22°C° 0 mm 4 m/S 751 mmHg 73%
    11:00 +23°C° 0,1 mm 4 m/S 751 mmHg 71%
    12:00 +23°C° 0,1 mm 4 m/S 751 mmHg 69%
    13:00 +23°C° 0,1 mm 4 m/S 751 mmHg 67%
    14:00 +23°C° 0,1 mm 4 m/S 751 mmHg 67%
    15:00 +23°C° 0,1 mm 4 m/S 751 mmHg 67%
    16:00 +23°C° 0,1 mm 4 m/S 751 mmHg 67%
    17:00 +22°C° 0 mm 3 m/S 751 mmHg 71%
    18:00 +22°C° 0 mm 3 m/S 751 mmHg 75%
    19:00 +21°C° 0 mm 2 m/S 751 mmHg 80%
    20:00 +20°C° 0 mm 2 m/S 751 mmHg 83%
    21:00 +19°C° 0 mm 2 m/S 752 mmHg 87%
    22:00 +19°C° 0 mm 1 m/S 752 mmHg 90%
    23:00 +18°C° 0 mm 1 m/S 752 mmHg 91%

    Morgen, 21 August, Dienstag

    Zeit Temperatur Niederschläge Wind Luftdruck Luftfeuchtigkeit
    00:00 +18°C° 0 mm 1 m/S 752 mmHg 92%
    01:00 +16°C° 0 mm 1 m/S 752 mmHg 93%
    02:00 +16°C° 0 mm 1 m/S 752 mmHg 94%
    03:00 +15°C° 0 mm 1 m/S 752 mmHg 94%
    04:00 +15°C° 0 mm 1 m/S 752 mmHg 94%
    05:00 +15°C° 0 mm 1 m/S 753 mmHg 91%
    06:00 +16°C° 0 mm 1 m/S 753 mmHg 88%
    07:00 +18°C° 0 mm 1 m/S 753 mmHg 85%
    08:00 +19°C° 0 mm 1 m/S 753 mmHg 77%
    09:00 +21°C° 0 mm 1 m/S 753 mmHg 70%
    10:00 +23°C° 0 mm 1 m/S 754 mmHg 62%
    11:00 +24°C° 0 mm 1 m/S 753 mmHg 59%
    12:00 +25°C° 0 mm 1 m/S 753 mmHg 55%
    13:00 +24°C° 0 mm 0 m/S 753 mmHg 51%
    14:00 +24°C° 0 mm 0 m/S 753 mmHg 51%
    15:00 +24°C° 0 mm 0 m/S 752 mmHg 51%
    16:00 +24°C° 0 mm 0 m/S 752 mmHg 51%
    17:00 +25°C° 0 mm 1 m/S 752 mmHg 56%
    18:00 +24°C° 0 mm 1 m/S 752 mmHg 60%
    19:00 +23°C° 0 mm 1 m/S 752 mmHg 65%
    20:00 +22°C° 0 mm 1 m/S 752 mmHg 67%
    21:00 +21°C° 0 mm 1 m/S 752 mmHg 70%
    22:00 +20°C° 0 mm 1 m/S 752 mmHg 73%
    23:00 +20°C° 0 mm 1 m/S 752 mmHg 75%

    übermorgen, 22 August, Mittwoch

    Zeit Temperatur Niederschläge Wind Luftdruck Luftfeuchtigkeit
    00:00 +19°C° 0 mm 1 m/S 752 mmHg 77%
    01:00 +19°C° 0 mm 1 m/S 752 mmHg 79%
    02:00 +18°C° 0 mm 1 m/S 752 mmHg 80%
    03:00 +18°C° 0 mm 1 m/S 752 mmHg 80%
    04:00 +18°C° 0 mm 1 m/S 751 mmHg 81%
    05:00 +19°C° 0 mm 1 m/S 751 mmHg 79%
    06:00 +20°C° 0 mm 1 m/S 751 mmHg 76%
    07:00 +21°C° 0 mm 1 m/S 751 mmHg 73%
    08:00 +22°C° 0 mm 1 m/S 751 mmHg 69%
    09:00 +24°C° 0 mm 1 m/S 751 mmHg 64%
    10:00 +25°C° 0 mm 2 m/S 751 mmHg 59%
    11:00 +26°C° 0 mm 2 m/S 751 mmHg 55%
    12:00 +27°C° 0 mm 2 m/S 750 mmHg 52%
    13:00 +28°C° 0 mm 2 m/S 750 mmHg 48%
    14:00 +28°C° 0 mm 2 m/S 750 mmHg 48%
    15:00 +28°C° 0 mm 2 m/S 749 mmHg 48%
    16:00 +28°C° 0 mm 2 m/S 749 mmHg 47%
    17:00 +27°C° 0 mm 1 m/S 749 mmHg 53%
    18:00 +26°C° 0 mm 1 m/S 749 mmHg 58%
    19:00 +22°C° 0 mm 0 m/S 749 mmHg 63%
    20:00 +21°C° 0 mm 0 m/S 749 mmHg 66%
    21:00 +20°C° 0 mm 0 m/S 749 mmHg 70%
    22:00 +19°C° 0 mm 0 m/S 749 mmHg 73%
    23:00 +21°C° 0 mm 1 m/S 749 mmHg 75%

    23 August, Donnerstag

    Zeit Temperatur Niederschläge Wind Luftdruck Luftfeuchtigkeit
    00:00 +20°C° 0 mm 1 m/S 749 mmHg 77%
    01:00 +20°C° 0 mm 1 m/S 749 mmHg 79%
    02:00 +20°C° 0 mm 1 m/S 749 mmHg 81%
    03:00 +19°C° 0 mm 1 m/S 748 mmHg 82%
    04:00 +19°C° 0 mm 1 m/S 748 mmHg 84%
    05:00 +20°C° 0 mm 1 m/S 748 mmHg 81%
    06:00 +21°C° 0 mm 1 m/S 748 mmHg 78%
    07:00 +21°C° 0 mm 1 m/S 748 mmHg 75%
    08:00 +23°C° 0 mm 1 m/S 748 mmHg 68%
    09:00 +25°C° 0 mm 2 m/S 748 mmHg 61%
    10:00 +27°C° 0 mm 2 m/S 748 mmHg 53%
    11:00 +28°C° 0 mm 2 m/S 747 mmHg 51%
    12:00 +29°C° 0 mm 3 m/S 747 mmHg 48%
    13:00 +30°C° 0 mm 3 m/S 746 mmHg 45%
    14:00 +30°C° 0 mm 3 m/S 746 mmHg 46%
    15:00 +30°C° 0 mm 2 m/S 745 mmHg 47%
    16:00 +29°C° 0 mm 2 m/S 745 mmHg 49%
    17:00 +28°C° 0 mm 2 m/S 744 mmHg 53%
    18:00 +27°C° 0 mm 2 m/S 744 mmHg 57%
    19:00 +26°C° 0 mm 1 m/S 744 mmHg 62%
    20:00 +25°C° 0,2 mm 2 m/S 744 mmHg 66%
    21:00 +24°C° 0,2 mm 2 m/S 744 mmHg 70%
    22:00 +21°C° 0,2 mm 2 m/S 744 mmHg 75%
    23:00 +21°C° 0 mm 2 m/S 744 mmHg 78%

    24 August, Freitag

    Zeit Temperatur Niederschläge Wind Luftdruck Luftfeuchtigkeit
    00:00 +20°C° 0 mm 2 m/S 743 mmHg 81%
    01:00 +19°C° 0 mm 2 m/S 743 mmHg 84%
    02:00 +19°C° 0 mm 2 m/S 743 mmHg 86%
    03:00 +19°C° 0 mm 1 m/S 743 mmHg 87%
    04:00 +19°C° 0 mm 1 m/S 743 mmHg 89%
    05:00 +20°C° 0,1 mm 1 m/S 743 mmHg 87%
    06:00 +20°C° 0,1 mm 1 m/S 742 mmHg 86%
    07:00 +18°C° 0,1 mm 0 m/S 742 mmHg 84%
    08:00 +21°C° 0,7 mm 1 m/S 742 mmHg 82%
    09:00 +21°C° 0,7 mm 2 m/S 742 mmHg 80%
    10:00 +21°C° 0,7 mm 3 m/S 742 mmHg 78%
    11:00 +20°C° 0,7 mm 3 m/S 742 mmHg 81%
    12:00 +18°C° 0,7 mm 3 m/S 743 mmHg 83%
    13:00 +17°C° 0,7 mm 3 m/S 743 mmHg 86%
    14:00 +17°C° 0,1 mm 3 m/S 743 mmHg 85%
    15:00 +16°C° 0,1 mm 3 m/S 743 mmHg 84%
    16:00 +16°C° 0,1 mm 2 m/S 744 mmHg 84%
    17:00 +16°C° 0,2 mm 2 m/S 744 mmHg 85%
    18:00 +16°C° 0,2 mm 2 m/S 744 mmHg 87%
    19:00 +15°C° 0,2 mm 2 m/S 744 mmHg 88%
    20:00 +15°C° 0,1 mm 2 m/S 745 mmHg 89%
    21:00 +14°C° 0,1 mm 1 m/S 745 mmHg 91%
    22:00 +14°C° 0,1 mm 1 m/S 745 mmHg 92%
    23:00 +14°C° 0 mm 1 m/S 745 mmHg 92%

    25 August, Samstag

    Zeit Temperatur Niederschläge Wind Luftdruck Luftfeuchtigkeit
    00:00 +13°C° 0 mm 1 m/S 746 mmHg 91%
    01:00 +13°C° 0 mm 1 m/S 746 mmHg 91%
    02:00 +13°C° 0 mm 1 m/S 746 mmHg 91%
    03:00 +12°C° 0 mm 1 m/S 746 mmHg 91%
    04:00 +12°C° 0 mm 1 m/S 746 mmHg 91%
    05:00 +12°C° 0 mm 1 m/S 747 mmHg 89%
    06:00 +12°C° 0 mm 1 m/S 747 mmHg 87%
    07:00 +13°C° 0 mm 2 m/S 747 mmHg 85%
    08:00 +14°C° 0 mm 2 m/S 747 mmHg 78%
    09:00 +14°C° 0 mm 3 m/S 747 mmHg 72%
    10:00 +16°C° 0 mm 3 m/S 748 mmHg 66%
    11:00 +17°C° 0 mm 3 m/S 748 mmHg 60%
    12:00 +18°C° 0 mm 3 m/S 748 mmHg 55%
    13:00 +19°C° 0 mm 3 m/S 747 mmHg 50%
    14:00 +19°C° 0 mm 3 m/S 747 mmHg 49%
    15:00 +19°C° 0 mm 3 m/S 747 mmHg 48%
    16:00 +19°C° 0 mm 3 m/S 747 mmHg 48%
    17:00 +18°C° 0 mm 2 m/S 747 mmHg 52%
    18:00 +17°C° 0 mm 2 m/S 747 mmHg 56%
    19:00 +16°C° 0 mm 1 m/S 747 mmHg 60%
    20:00 +15°C° 0 mm 1 m/S 747 mmHg 64%
    21:00 +14°C° 0 mm 1 m/S 748 mmHg 67%
    22:00 +12°C° 0 mm 1 m/S 748 mmHg 71%
    23:00 +12°C° 0 mm 1 m/S 748 mmHg 73%
    Mehr zeigen